NM4SH Weather Reports


time (UTC)temp
C
wind
direction
speed
KPH
gust
KPH
rain 1hr
cm
rain 24hr
cm
rain mn
cm
humidity
%
barometer
mb
20260504011839 11 188 0.0 0.0 0.00 0.00 0.00 55 1012.6
20260504010336 12 188 0.0 0.0 0.00 0.00 0.00 56 1012.2
20260504004834 12 188 0.0 0.0 0.00 0.00 0.00 53 1012.1
20260504003328 12 188 0.0 0.0 0.00 0.00 0.00 51 1011.8
20260504001831 13 188 0.0 0.0 0.00 0.00 0.00 47 1011.6
20260504000326 14 188 0.0 0.0 0.00 0.00 0.00 45 1011.5
20260503234825 15 188 0.0 0.0 0.00 0.00 0.00 43 1011.4
20260503233342 15 188 0.0 1.6 0.00 0.00 0.00 41 1011.5
20260503231835 16 291 3.2 8.0 0.00 0.00 0.00 40 1011.3
20260503230334 16 329 0.0 4.8 0.00 0.00 0.00 41 1011.2
20260503224850 16 334 1.6 6.4 0.00 0.00 0.00 39 1011.2
20260503223330 16 1 0.0 8.0 0.00 0.00 0.00 39 1011.3
20260503221825 16 134 1.6 11.3 0.00 0.00 0.00 38 1011.4
20260503220322 16 309 1.6 8.0 0.00 0.00 0.00 38 1011.4
20260503214839 16 302 3.2 11.3 0.00 0.00 0.00 38 1011.1
20260503213353 16 312 0.0 14.5 0.00 0.00 0.00 39 1011.2
20260503211831 16 284 4.8 9.7 0.00 0.00 0.00 37 1011.1
20260503210327 16 237 1.6 11.3 0.00 0.00 0.00 37 1011.1
20260503204823 16 320 6.4 14.5 0.00 0.00 0.00 38 1011.1
20260503203339 17 315 1.6 8.0 0.00 0.00 0.00 37 1011.2
20260503201837 17 56 1.6 11.3 0.00 0.00 0.00 35 1011.3
20260503200330 17 225 1.6 9.7 0.00 0.00 0.00 36 1011.6
20260503194831 17 314 4.8 14.5 0.00 0.00 0.00 35 1011.6
20260503193326 17 322 3.2 9.7 0.00 0.00 0.00 35 1011.8
20260503191820 17 218 1.6 17.7 0.00 0.00 0.00 36 1012.1
20260503190322 17 31 3.2 16.1 0.00 0.00 0.00 38 1012.1
20260503184837 17 16 0.0 6.4 0.00 0.00 0.00 39 1012.1
20260503183339 16 265 3.2 11.3 0.00 0.00 0.00 39 1012.1
20260503181833 16 71 3.2 11.3 0.00 0.00 0.00 39 1012.4
20260503180331 16 286 1.6 9.7 0.00 0.00 0.00 40 1012.3
20260503174825 16 50 1.6 9.7 0.00 0.00 0.00 41 1012.6
20260503173323 15 4 1.6 12.9 0.00 0.00 0.00 42 1012.6
20260503171840 14 270 0.0 16.1 0.00 0.00 0.00 44 1012.7
20260503170335 14 336 3.2 9.7 0.00 0.00 0.00 43 1012.9
20260503150330 12 42 6.4 14.5 0.00 0.00 0.00 45 1013.2
20260503130332 10 19 6.4 14.5 0.00 0.00 0.00 57 1013.0
20260503110327 10 37 4.8 9.7 0.00 0.00 0.00 62 1011.5
20260503090344 10 359 3.2 4.8 0.00 0.00 0.00 68 1009.5
20260503080325 11 22 0.0 6.4 0.00 0.00 0.00 65 1008.8
20260503071857 11 359 1.6 9.7 0.00 0.00 0.00 69 1008.4
20260503070330 11 336 0.0 6.4 0.00 0.00 0.00 71 1008.2
20260503060340 8 65 0.0 0.0 0.00 0.00 0.00 82 1007.9
20260503054854 8 65 0.0 0.0 0.00 0.00 0.00 81 1007.9
20260503053333 8 65 0.0 0.0 0.00 0.00 0.00 81 1007.9
20260503051826 9 65 0.0 0.0 0.00 0.00 0.00 80 1007.9
20260503050329 9 65 0.0 0.0 0.00 0.00 0.00 78 1008.0
20260503044824 10 65 0.0 0.0 0.00 0.00 0.00 77 1008.1
20260503043337 10 65 0.0 0.0 0.00 0.00 0.00 76 1007.9
20260503041856 10 65 0.0 0.0 0.00 0.00 0.00 76 1007.9
20260503040351 10 65 0.0 0.0 0.00 0.00 0.00 74 1008.2
20260503034851 11 65 0.0 0.0 0.00 0.00 0.00 73 1008.0
20260503033324 11 65 0.0 0.0 0.00 0.00 0.00 73 1007.9
20260503031839 11 65 0.0 0.0 0.00 0.00 0.00 71 1007.9
20260503030338 11 65 0.0 0.0 0.00 0.00 0.00 71 1007.9
20260503024835 12 65 0.0 0.0 0.00 0.00 0.00 70 1008.0
20260503023334 12 65 0.0 0.0 0.00 0.00 0.00 68 1008.1
20260503021829 12 65 0.0 0.0 0.00 0.00 0.00 67 1007.8
20260503020328 13 65 0.0 0.0 0.00 0.00 0.00 65 1007.9
20260503014827 13 65 0.0 0.0 0.00 0.00 0.00 64 1007.8
20260503013325 13 67 0.0 3.2 0.00 0.00 0.00 63 1007.9